Simultaneous Nadir Overpasses (SNOs) Predictions

Prediction of SNOs near US between AQUA and NPP Satellite Orbit:

Table of predicted SNOs near US for the next 10.0 days since TLE Epoch: 4/9/2022
Index Date (AQUA) Time (AQUA) AQUA Lat,Lon Date (NPP) Time (NPP) NPP Lat,Lon Distance(km) Time Diff (sec)
1 04/09/2022 18:14:17 49.97, -79.09 04/09/2022 18:10:35 49.54, -81.65 190.07 222
2 04/09/2022 19:53:10 49.99,-103.82 04/09/2022 19:52:03 49.43,-106.98 235.53 67
3 04/12/2022 07:41:52 23.18, -87.57 04/12/2022 07:34:24 23.39, -88.51 98.95 448
4 04/12/2022 09:18:13 32.31,-109.96 04/12/2022 09:13:17 32.57,-111.42 139.60 296
5 04/17/2022 19:02:56 49.95, -91.22 04/17/2022 19:01:14 49.41, -94.27 227.76 102
